sat.trackr.live / text

‹ back to catalog

STARLINK-4105

NORAD 53168 · 2022-083AN

PAYLOAD ACTIVE UNKNOWN

§ Identity

Operator
Country
US
Launch date
2022-07-17
Launch site
AFETR
Launch vehicle
Mass (kg)
RCS (m²)

Purposes: comms

External: N2YO · Heavens-Above · Gunter

§ Orbital elements

Epoch: 2026-09-20T00:15:22.269024Z

Period
93.90 min
Inclination
53.1606°
Eccentricity
0.0001209
Mean motion
15.33545006 rev/d
Perigee alt
464.4 km
Apogee alt
466.1 km
Semi-major
6,843.4 km
B*
1.4355e-4
RAAN
5.9306°
Arg perigee
86.2073°
Mean anomaly
273.9068°
Rev number
23,077

§ Raw data

STARLINK-41051 53168U 22083AN  26263.01067441  .00004350  00000+0  14355-3 0  99922 53168  53.1606   5.9306 0001209  86.2073 273.9068 15.33545006230773

JSON: /api/v1/satellites/53168 · /tle

For live sub-satellite position, see the globe view (requires WebGL).

§ Visibility from observer

Set your observer location to see the next 7 days of passes ≥ 10°. The values pass through the URL so the page stays shareable.

No JS? Fill the form by hand. The geolocation button needs JavaScript.